Weather History for Milton, FL

Change the Weather History Date:

Friday, April 19, 2013

  Actual Average (KNSE) Record (KNSE)
Temperature  
Mean Temperature 62 °F -  
Max Temperature 75 °F 75 °F 87 °F (2006)
Min Temperature 48 °F 55 °F 39 °F (2001)
Degree Days  
Heating Degree Days 2    
Growing Degree Days 12 (Base 50)    
Moisture  
Dew Point 56 °F    
Average Humidity 86    
Maximum Humidity 93    
Minimum Humidity 74    
Precipitation  
Precipitation 0.01 in - - ()
Sea Level Pressure  
Sea Level Pressure 29.96 in    
Wind  
Wind Speed 11 mph (WNW)    
Max Wind Speed 18 mph    
Max Gust Speed 28 mph    
Visibility 10 miles    
Events Rain    
Averages and records for this station are not official NWS values.
T = Trace of Precipitation, MM = Missing Value Source: NWS Daily Summary

Daily Weather History Graph

Daily Weather History Graph

Search for Another Location

Airport:

Trip Planner

Search our weather history database for the weather conditions in past years. The results will help you decide how hot, cold, wet, or windy it might be!

Date:

Astronomy

Apr. 19, 2013 Rise Set
Actual Time 6:15 AM CDT 7:18 PM CDT
Civil Twilight 5:50 AM CDT 7:43 PM CDT
Nautical Twilight 5:21 AM CDT 8:13 PM CDT
Astronomical Twilight 4:51 AM CDT 8:43 PM CDT
Moon 1:27 PM CDT 2:05 AM CDT
Length of Visible Light 13h 52m
Length of Day
13h 02m
First Quarter, 62% of the Moon is Illuminated
Apr 19
First Quarter
Apr 25
Full
May 2
Last Quarter
May 9
New
May 17
First Quarter

Hourly Weather History & Observations

Time (CDT) Temp. Dew Point Humidity Pressure Visibility Wind Dir Wind Speed Gust Speed Precip Events Conditions
12:56 AM 73.9 °F 71.1 °F 91% 29.84 in 10.0 mi South 13.8 mph 19.6 mph N/A   Overcast
1:56 AM 73.9 °F 71.1 °F 91% 29.82 in 10.0 mi South 16.1 mph 21.9 mph N/A   Overcast
2:56 AM 73.9 °F 71.1 °F 91% 29.80 in 10.0 mi South 12.7 mph 23.0 mph N/A   Overcast
3:56 AM 75.0 °F 71.1 °F 87% 29.81 in 10.0 mi SSW 9.2 mph 25.3 mph N/A   Overcast
4:07 AM 75.2 °F 71.6 °F 89% 29.84 in 10.0 mi SSW 12.7 mph 24.2 mph N/A   Overcast
4:23 AM 75.2 °F 71.6 °F 89% 29.84 in 10.0 mi SSW 11.5 mph 18.4 mph N/A   Overcast
4:30 AM 75.2 °F 69.8 °F 83% 29.84 in 10.0 mi SSW 13.8 mph 20.7 mph N/A   Overcast
4:56 AM 75.0 °F 70.0 °F 84% 29.80 in 10.0 mi SSW 12.7 mph 23.0 mph N/A   Overcast
5:56 AM 75.0 °F 70.0 °F 84% 29.81 in 10.0 mi SW 10.4 mph 18.4 mph N/A   Overcast
6:56 AM 75.0 °F 70.0 °F 84% 29.81 in 10.0 mi SSW 9.2 mph 17.3 mph N/A   Overcast
7:33 AM 75.2 °F 71.6 °F 89% 29.87 in 10.0 mi SSW 12.7 mph 21.9 mph 0.00 in   Overcast
7:43 AM 75.2 °F 71.6 °F 89% 29.87 in 10.0 mi SSW 9.2 mph 18.4 mph 0.00 in Rain Light Rain
7:56 AM 70.0 °F 66.0 °F 87% 29.86 in 10.0 mi WNW 15.0 mph 26.5 mph 0.00 in   Overcast
8:56 AM 60.1 °F 57.0 °F 90% 29.91 in 10.0 mi NW 12.7 mph 20.7 mph 0.01 in   Overcast
9:56 AM 57.9 °F 53.1 °F 84% 29.96 in 10.0 mi NNW 13.8 mph 26.5 mph N/A   Overcast
10:56 AM 57.9 °F 52.0 °F 81% 29.97 in 10.0 mi NNW 18.4 mph 26.5 mph 0.00 in   Overcast
11:14 AM 57.2 °F 51.8 °F 82% 30.01 in 10.0 mi NNW 16.1 mph 25.3 mph N/A   Overcast
11:39 AM 55.4 °F 48.2 °F 77% 30.02 in 10.0 mi NW 16.1 mph 27.6 mph N/A   Overcast
11:56 AM 55.0 °F 46.9 °F 74% 29.97 in 10.0 mi NNW 15.0 mph 21.9 mph 0.00 in Rain Light Rain
12:56 PM 54.0 °F 48.0 °F 80% 29.98 in 10.0 mi NNW 13.8 mph 23.0 mph 0.00 in Rain Light Rain
1:54 PM 53.6 °F 48.2 °F 82% 30.03 in 10.0 mi NNW 12.7 mph 25.3 mph 0.00 in   Overcast
1:56 PM 53.1 °F 48.9 °F 86% 29.99 in 10.0 mi NW 12.7 mph 25.3 mph 0.00 in   Overcast
2:38 PM 53.6 °F 48.2 °F 82% 30.01 in 10.0 mi North 15.0 mph - 0.00 in Rain Light Rain
2:56 PM 54.0 °F 48.0 °F 80% 29.95 in 10.0 mi North 15.0 mph - 0.00 in   Mostly Cloudy
3:45 PM 53.6 °F 48.2 °F 82% 29.99 in 10.0 mi NNW 11.5 mph - N/A   Overcast
3:56 PM 53.1 °F 46.9 °F 80% 29.97 in 10.0 mi NNW 12.7 mph - N/A   Overcast
4:56 PM 52.0 °F 48.0 °F 86% 30.00 in 10.0 mi NNW 5.8 mph - N/A Rain Rain
5:37 PM 51.8 °F 48.2 °F 88% 30.02 in 10.0 mi NE 6.9 mph - N/A Rain Light Rain
5:56 PM 51.1 °F 48.0 °F 89% 29.99 in 10.0 mi North 6.9 mph - N/A Rain Light Rain
6:56 PM 51.1 °F 48.0 °F 89% 30.04 in 10.0 mi Calm Calm - N/A Rain Light Rain
7:56 PM 51.1 °F 48.9 °F 92% 30.05 in 10.0 mi Calm Calm - N/A   Partly Cloudy
8:17 PM 51.8 °F 48.2 °F 88% 30.09 in 10.0 mi NNW 3.5 mph - N/A   Mostly Cloudy
8:38 PM 51.8 °F 48.2 °F 88% 30.11 in 10.0 mi Calm Calm - N/A   Scattered Clouds
8:43 PM 51.8 °F 48.2 °F 88% 30.12 in 10.0 mi Calm Calm - N/A   Mostly Cloudy
8:56 PM 51.1 °F 48.9 °F 92% 30.08 in 10.0 mi Calm Calm - N/A   Mostly Cloudy
9:12 PM 51.8 °F 48.2 °F 88% 30.13 in 10.0 mi Calm Calm - N/A   Scattered Clouds
9:56 PM 51.1 °F 48.0 °F 89% 30.11 in 10.0 mi Calm Calm - N/A   Clear
10:56 PM 50.0 °F 48.0 °F 93% 30.11 in 10.0 mi West 3.5 mph - N/A   Clear
11:56 PM 48.9 °F 46.9 °F 93% 30.12 in 7.0 mi Calm Calm - N/A   Clear